E24CR-1 Weather Reports


Display with metric or nautical units.
time (UTC)temp
F
wind
direction
speed
MPH
gust
MPH
rain 1hr
in
rain 24hr
in
rain mn
in
humidity
%
barometer
mb
20260506225630 81 0 0.0 0.0 0.00 0.00 0.00 73 951.0
20260506224605 82 0 0.0 0.0 0.00 0.00 0.00 74 951.0
20260506223540 82 0 0.0 0.0 0.00 0.00 0.00 74 951.0
20260506222515 82 0 0.0 0.0 0.00 0.00 0.00 73 951.0
20260506221450 82 0 0.0 0.0 0.00 0.00 0.00 73 951.0
20260506220425 81 0 0.0 0.0 0.00 0.00 0.00 76 951.0
20260506215400 79 0 0.0 0.0 0.00 0.00 0.00 84 951.0
20260506214336 80 0 0.0 0.0 0.00 0.00 0.00 78 951.0
20260506213311 81 0 0.0 0.0 0.00 0.00 0.00 78 951.0
20260506212243 82 0 0.0 0.0 0.00 0.00 0.00 76 951.0
20260506211730 81 0 0.0 0.0 0.00 0.00 0.00 77 951.0
20260506210706 82 0 0.0 0.0 0.00 0.00 0.00 70 951.0
20260506205641 83 0 0.0 0.0 0.00 0.00 0.00 68 950.0
20260506204616 83 0 0.0 0.0 0.00 0.00 0.00 66 950.0
20260506203551 83 0 0.0 0.0 0.00 0.00 0.00 67 950.0
20260506202524 82 0 0.0 0.0 0.00 0.00 0.00 69 950.0
20260506201458 81 0 0.0 0.0 0.00 0.00 0.00 72 950.0
20260506200433 82 0 0.0 0.0 0.00 0.00 0.00 70 950.0
20260506195408 82 0 0.0 0.0 0.00 0.00 0.00 70 950.0
20260506194343 82 0 0.0 0.0 0.00 0.00 0.00 72 950.0
20260506193318 82 0 0.0 0.0 0.00 0.00 0.00 72 950.0
20260506192252 83 0 0.0 0.0 0.00 0.00 0.00 71 950.0
20260506191227 83 0 0.0 0.0 0.00 0.00 0.00 71 950.0
20260506190202 84 0 0.0 0.0 0.00 0.00 0.00 70 950.0
20260506185137 83 0 0.0 0.0 0.00 0.00 0.00 70 950.0
20260506184112 83 0 0.0 0.0 0.00 0.00 0.00 72 950.0
20260506183046 81 0 0.0 0.0 0.00 0.00 0.00 77 950.0
20260506182021 83 0 0.0 0.0 0.00 0.00 0.00 71 950.0
20260506180953 81 0 0.0 0.0 0.00 0.00 0.00 78 950.0
20260506180607 80 0 0.0 0.0 0.00 0.00 0.00 83 950.0
20260506175542 79 0 0.0 0.0 0.00 0.00 0.00 87 951.0
20260506174518 80 0 0.0 0.0 0.00 0.00 0.00 81 951.0
20260506173452 81 0 0.0 0.0 0.00 0.00 0.00 77 951.0
20260506172427 80 0 0.0 0.0 0.00 0.00 0.00 79 951.0
20260506171402 77 0 0.0 0.0 0.00 0.00 0.00 95 951.0
20260506170338 77 0 0.0 0.0 0.00 0.00 0.00 96 951.0
20260506165313 77 0 0.0 0.0 0.00 0.00 0.00 89 951.0
20260506164248 81 0 0.0 0.0 0.00 0.00 0.00 73 951.0
20260506163223 78 0 0.0 0.0 0.00 0.00 0.00 88 951.0
20260506162158 79 0 0.0 0.0 0.00 0.00 0.00 93 951.0
20260506161133 85 0 0.0 0.0 0.00 0.00 0.00 58 951.0
20260506160106 85 0 0.0 0.0 0.00 0.00 0.00 58 951.0
20260506155040 85 0 0.0 0.0 0.00 0.00 0.00 57 951.0
20260506153905 86 0 0.0 0.0 0.00 0.00 0.00 55 951.0
20260506152840 88 0 0.0 0.0 0.00 0.00 0.00 52 951.0
20260506151815 86 0 0.0 0.0 0.00 0.00 0.00 55 951.0
20260506150748 87 0 0.0 0.0 0.00 0.00 0.00 53 951.0
20260506145625 88 0 0.0 0.0 0.00 0.00 0.00 52 951.0
20260506144600 87 0 0.0 0.0 0.00 0.00 0.00 54 951.0
20260506143535 87 0 0.0 0.0 0.00 0.00 0.00 54 950.0
20260506142510 89 0 0.0 0.0 0.00 0.00 0.00 51 950.0
20260506141443 90 0 0.0 0.0 0.00 0.00 0.00 48 950.0
20260506140418 89 0 0.0 0.0 0.00 0.00 0.00 50 950.0
20260506135849 89 0 0.0 0.0 0.00 0.00 0.00 50 949.0
20260506135447 89 0 0.0 0.0 0.00 0.00 0.00 50 949.0
20260506134423 87 0 0.0 0.0 0.00 0.00 0.00 51 949.0
20260506133358 87 0 0.0 0.0 0.00 0.00 0.00 52 949.0
20260506132333 87 0 0.0 0.0 0.00 0.00 0.00 50 948.0
20260506131308 88 0 0.0 0.0 0.00 0.00 0.00 49 948.0
20260506130243 90 0 0.0 0.0 0.00 0.00 0.00 47 948.0
20260506125217 91 0 0.0 0.0 0.00 0.00 0.00 45 948.0
20260506124151 90 0 0.0 0.0 0.00 0.00 0.00 46 948.0
20260506123124 91 0 0.0 0.0 0.00 0.00 0.00 45 948.0
20260506122058 92 0 0.0 0.0 0.00 0.00 0.00 43 948.0
20260506121034 92 0 0.0 0.0 0.00 0.00 0.00 42 948.0
20260506120009 91 0 0.0 0.0 0.00 0.00 0.00 44 948.0
20260506114944 91 0 0.0 0.0 0.00 0.00 0.00 44 948.0
20260506113918 91 0 0.0 0.0 0.00 0.00 0.00 43 948.0
20260506112854 92 0 0.0 0.0 0.00 0.00 0.00 43 948.0
20260506111829 92 0 0.0 0.0 0.00 0.00 0.00 43 947.0
20260506110803 92 0 0.0 0.0 0.00 0.00 0.00 43 947.0
20260506105738 92 0 0.0 0.0 0.00 0.00 0.00 42 947.0
20260506104713 93 0 0.0 0.0 0.00 0.00 0.00 42 947.0
20260506103648 94 0 0.0 0.0 0.00 0.00 0.00 43 947.0
20260506102624 94 0 0.0 0.0 0.00 0.00 0.00 41 947.0
20260506101600 95 0 0.0 0.0 0.00 0.00 0.00 41 947.0
20260506100536 97 0 0.0 0.0 0.00 0.00 0.00 39 947.0
20260506095511 98 0 0.0 0.0 0.00 0.00 0.00 38 947.0
20260506094447 97 0 0.0 0.0 0.00 0.00 0.00 38 947.0
20260506093423 96 0 0.0 0.0 0.00 0.00 0.00 39 947.0
20260506092359 94 0 0.0 0.0 0.00 0.00 0.00 42 948.0
20260506091335 93 0 0.0 0.0 0.00 0.00 0.00 44 948.0
20260506090311 93 0 0.0 0.0 0.00 0.00 0.00 47 948.0
20260506085246 91 0 0.0 0.0 0.00 0.00 0.00 47 948.0
20260506084223 95 0 0.0 0.0 0.00 0.00 0.00 36 948.0
20260506083158 94 0 0.0 0.0 0.00 0.00 0.00 37 948.0
20260506082134 96 0 0.0 0.0 0.00 0.00 0.00 35 948.0
20260506081110 98 0 0.0 0.0 0.00 0.00 0.00 34 948.0
20260506072931 101 0 0.0 0.0 0.00 0.00 0.00 33 948.0
20260506071907 101 0 0.0 0.0 0.00 0.00 0.00 32 949.0
20260506070843 102 0 0.0 0.0 0.00 0.00 0.00 33 949.0
20260506061642 100 0 0.0 0.0 0.00 0.00 0.00 35 950.0
20260506060618 99 0 0.0 0.0 0.00 0.00 0.00 35 951.0
20260506051411 101 0 0.0 0.0 0.00 0.00 0.00 36 951.0
20260506050345 98 0 0.0 0.0 0.00 0.00 0.00 41 951.0
20260506044255 98 0 0.0 0.0 0.00 0.00 0.00 40 952.0
20260506043231 98 0 0.0 0.0 0.00 0.00 0.00 42 952.0
20260506042207 99 0 0.0 0.0 0.00 0.00 0.00 42 952.0
20260506041143 97 0 0.0 0.0 0.00 0.00 0.00 43 952.0
20260506040118 94 0 0.0 0.0 0.00 0.00 0.00 46 952.0
20260506035054 96 0 0.0 0.0 0.00 0.00 0.00 45 952.0
20260506034030 96 0 0.0 0.0 0.00 0.00 0.00 43 952.0
20260506033006 95 0 0.0 0.0 0.00 0.00 0.00 46 953.0
20260506031942 92 0 0.0 0.0 0.00 0.00 0.00 50 953.0
20260506030918 93 0 0.0 0.0 0.00 0.00 0.00 48 953.0
20260506025854 91 0 0.0 0.0 0.00 0.00 0.00 50 953.0
20260506024829 91 0 0.0 0.0 0.00 0.00 0.00 50 953.0
20260506023805 90 0 0.0 0.0 0.00 0.00 0.00 53 953.0
20260506022741 89 0 0.0 0.0 0.00 0.00 0.00 58 953.0
20260506021717 87 0 0.0 0.0 0.00 0.00 0.00 61 953.0
20260506020652 87 0 0.0 0.0 0.00 0.00 0.00 64 953.0
20260506015628 88 0 0.0 0.0 0.00 0.00 0.00 65 953.0
20260506014604 87 0 0.0 0.0 0.00 0.00 0.00 66 953.0
20260506013540 87 0 0.0 0.0 0.00 0.00 0.00 69 953.0
20260506012515 85 0 0.0 0.0 0.00 0.00 0.00 74 953.0
20260506011451 84 0 0.0 0.0 0.00 0.00 0.00 75 953.0
20260506010427 82 0 0.0 0.0 0.00 0.00 0.00 79 952.0
20260506005403 81 0 0.0 0.0 0.00 0.00 0.00 80 952.0
20260506004339 80 0 0.0 0.0 0.00 0.00 0.00 80 952.0
20260506003315 80 0 0.0 0.0 0.00 0.00 0.00 80 952.0
20260506002251 80 0 0.0 0.0 0.00 0.00 0.00 80 952.0
20260506001227 79 0 0.0 0.0 0.00 0.00 0.00 80 952.0
20260506000204 79 0 0.0 0.0 0.00 0.00 0.00 82 952.0
20260505235138 79 0 0.0 0.0 0.00 0.00 0.00 81 952.0
20260505234114 79 0 0.0 0.0 0.00 0.00 0.00 81 952.0
20260505233050 79 0 0.0 0.0 0.00 0.00 0.00 83 952.0
20260505232026 77 0 0.0 0.0 0.00 0.00 0.00 87 952.0
20260505231002 76 0 0.0 0.0 0.00 0.00 0.00 90 952.0
20260505225938 78 0 0.0 0.0 0.00 0.00 0.00 84 951.0